Wind_Speed
55 53 55 55 55 53 56 55 55 58 60 62 63 65 66 67 68 69 71 72 71 69 65 60 56 56 56 52 43 52 54 55 40 39 40 35 32 27 26 26 25 24 29
57 56 57 55 54 54 53 56 58 59 60 62 63 65 66 67 68 71 74 75 75 74 74 68 63 61 55 51 50 50 67 64 40 41 37 31 29 28 25 26 32 26 26
58 59 59 56 56 52 54 55 55 56 57 58 59 61 62 62 61 62 63 67 71 71 72 72 68 64 58 57 48 52 54 38 45 37 28 31 30 27 26 26 27 19 19
63 63 58 55 55 54 50 49 49 53 54 55 57 58 60 62 62 65 66 65 63 61 59 57 60 65 60 63 45 48 42 41 41 39 31 30 29 32 29 26 25 26 18
63 61 60 59 58 57 55 55 55 56 59 66 68 65 65 65 66 67 65 65 65 63 62 63 65 66 68 68 58 47 31 43 41 43 33 32 29 29 28 26 27 23 26
58 57 57 57 56 59 61 59 56 52 49 52 55 55 53 55 60 72 69 65 67 64 63 65 71 69 61 60 54 52 53 46 53 46 32 36 32 32 32 32 31 31 27
55 54 52 56 59 58 57 56 57 56 54 52 52 55 57 56 58 59 68 66 59 58 63 59 59 62 50 53 56 50 57 41 40 26 32 35 36 34 32 29 30 34 35
50 54 55 55 56 57 58 58 57 56 58 60 57 57 57 56 58 59 56 62 52 52 57 47 25 43 46 44 40 46 43 25 17 27 32 31 31 29 29 30 31 37 38
52 52 52 54 57 58 55 54 54 59 59 56 56 59 57 55 55 55 48 51 44 40 32 13 25 35 33 41 37 27 15 22 28 28 29 26 26 24 26 29 31 35 39
48 49 52 48 48 50 55 59 59 60 58 58 57 58 53 49 51 47 44 40 36 28 12 14 43 40 36 26 17 18 22 27 26 25 26 24 19 19 23 26 28 31 34
47 43 43 45 53 52 54 54 49 46 50 53 52 44 44 45 43 42 36 39 30 32 15 12 16 20 22 22 24 25 30 27 26 25 21 13 14 16 19 25 27 29 31
40 42 44 55 50 53 57 54 49 48 47 49 43 37 37 40 39 34 37 35 30 34 22 17 20 24 26 24 29 29 28 23 24 21 16 13 11 15 19 23 24 24 26
42 48 56 47 48 50 51 45 43 45 46 33 31 32 32 34 32 37 36 34 36 36 31 22 19 21 31 31 28 27 25 24 22 18 17 13 12 17 20 23 24 20 23
47 52 49 46 46 45 48 36 36 36 33 27 27 26 29 29 39 42 39 40 48 36 35 30 24 24 24 21 23 25 24 23 24 19 14 14 15 20 23 23 22 21 20
47 52 47 44 44 43 42 32 30 29 25 26 23 24 27 31 46 46 43 44 44 40 38 30 30 30 29 26 24 27 27 25 23 20 19 13 19 23 21 18 19 20 19
46 42 39 38 40 38 35 31 27 26 21 21 21 19 23 41 48 48 48 31 40 41 38 36 30 28 26 26 26 27 26 24 23 22 19 15 20 22 16 17 19 19 17
39 41 39 38 37 33 29 26 22 21 20 18 19 19 25 44 49 45 41 33 39 37 37 38 33 33 30 30 30 28 26 27 26 21 19 20 23 19 17 17 19 18 16
39 38 37 35 32 29 26 22 19 16 21 18 19 19 34 46 47 47 49 33 39 40 41 40 38 35 33 34 33 29 29 26 25 22 22 24 25 19 16 15 16 18 20
39 36 40 35 29 23 21 20 16 15 20 18 16 19 37 45 44 47 50 41 39 39 40 39 40 37 33 31 31 29 28 30 26 25 25 27 24 19 16 17 18 20 24
38 36 38 33 27 23 19 15 14 14 19 18 17 19 36 40 38 43 41 45 44 42 39 39 37 35 38 34 33 34 36 34 33 31 28 27 21 19 17 17 20 26 22
40 35 37 32 26 26 15 8 10 12 18 20 21 20 31 36 37 44 44 42 41 38 28 35 36 35 38 37 42 41 38 37 39 31 27 25 22 19 17 19 21 26 26
41 35 40 33 27 25 13 1 8 13 14 23 22 26 26 32 39 44 44 40 37 39 38 28 35 37 38 38 42 39 30 32 35 30 28 25 20 17 17 24 24 16 19
43 38 45 37 30 26 18 11 10 11 13 25 23 24 27 31 33 36 44 45 40 37 34 31 36 37 36 35 36 35 27 28 28 32 28 19 15 15 24 23 8 20 26
43 43 42 46 31 27 21 18 16 13 14 20 24 22 25 28 30 31 34 41 40 35 32 34 35 32 32 31 32 27 29 29 29 26 17 16 14 22 30 11 7 21 24
41 45 41 42 45 31 21 13 14 14 14 15 26 27 25 25 25 27 29 34 42 43 37 35 33 31 30 33 33 28 29 28 24 18 14 11 17 22 1 6 11 19 25
38 42 47 41 39 41 27 18 15 14 14 16 24 25 23 22 22 24 26 31 38 45 40 33 31 31 34 33 29 29 29 22 16 14 12 13 14 4 8 16 28 21 22
Wind_Direction
279 278 276 273 273 274 274 270 268 268 267 267 267 266 265 263 262 262 264 266 267 267 265 262 263 261 258 263 264 262 270 243 270 232 241 236 243 251 259 269 269 262 257
281 278 276 273 273 273 270 271 272 270 269 269 267 265 263 262 262 262 261 260 262 262 262 261 260 257 258 259 259 259 273 249 251 223 221 227 236 244 252 258 267 268 268
287 277 273 273 273 273 275 274 273 271 270 270 267 266 265 263 262 263 264 265 263 260 260 261 258 255 256 251 250 259 243 240 244 232 217 229 235 243 252 256 267 270 249
280 279 280 280 278 276 273 269 272 275 272 268 267 267 265 264 264 263 261 262 261 263 266 267 265 257 243 246 248 250 266 256 228 222 224 230 238 246 252 257 262 243 261
280 284 286 286 283 282 281 280 276 269 266 268 269 265 263 263 263 261 261 257 256 260 263 267 266 260 247 246 248 250 241 235 228 226 227 238 244 251 258 253 255 258 256
280 279 279 283 288 290 290 288 283 279 270 263 263 265 267 268 265 262 258 258 259 263 265 268 266 257 246 240 246 244 248 240 233 227 222 238 246 251 255 259 261 267 253
280 284 289 289 287 286 286 287 285 284 281 274 265 263 265 269 270 270 258 255 261 267 273 279 262 245 228 227 234 247 246 224 219 220 228 237 243 248 252 250 246 246 241
290 290 289 287 287 289 288 288 288 286 281 274 271 269 268 270 268 273 260 251 258 264 281 286 247 199 213 218 232 208 197 199 200 219 227 236 242 242 246 245 239 237 238
288 285 287 290 291 292 292 290 289 285 284 280 273 267 268 269 271 266 254 245 250 268 269 204 187 180 175 187 192 188 200 200 219 226 230 234 245 248 251 250 243 245 235
286 291 291 292 294 294 290 288 285 282 279 277 268 264 263 266 270 250 246 232 241 248 227 166 179 177 178 183 187 187 205 210 215 219 221 228 238 249 248 249 251 251 248
296 294 292 294 299 298 296 293 287 286 286 277 272 258 259 267 253 241 228 222 226 221 188 201 174 176 187 194 194 201 204 208 211 212 219 230 249 252 249 251 249 248 248
295 298 303 305 299 296 296 291 285 284 284 281 259 257 261 250 238 222 206 214 223 213 193 193 201 204 203 204 199 202 208 197 200 212 223 236 259 264 253 246 239 237 245
304 303 299 304 301 304 303 292 283 284 285 265 262 264 247 235 224 192 196 214 198 192 203 194 186 181 184 183 186 187 189 195 199 217 233 251 269 269 263 255 246 236 243
303 306 312 307 304 308 310 292 288 284 280 260 262 252 236 226 192 180 189 193 187 196 203 198 188 180 160 183 190 191 187 196 209 217 235 253 258 257 257 253 248 242 244
308 315 312 305 300 308 314 293 289 292 261 260 256 242 224 205 179 181 186 193 192 190 195 201 197 183 167 177 192 195 193 201 214 223 234 250 255 249 250 243 243 242 234
320 320 315 312 309 301 310 295 286 291 250 254 245 241 224 186 176 184 188 190 190 191 200 194 191 185 182 180 191 199 205 214 222 222 231 249 253 249 242 237 231 232 240
332 327 319 313 308 302 303 303 291 287 243 246 240 235 209 181 178 183 183 193 189 187 187 188 196 198 188 195 197 201 208 214 220 218 230 256 254 245 238 238 229 238 238
337 336 333 326 315 301 293 296 280 285 232 236 234 226 190 178 179 184 183 180 190 187 188 187 192 191 194 199 196 204 213 217 221 227 234 241 249 239 241 247 242 243 253
343 340 343 335 331 317 297 282 262 265 226 221 222 209 181 178 182 187 193 191 188 195 195 196 200 203 196 191 190 203 214 218 218 221 229 233 243 234 239 248 247 252 259
348 346 349 344 340 334 315 277 242 239 212 203 198 195 180 180 185 192 194 199 198 200 201 197 196 199 199 200 200 210 216 219 221 225 226 234 239 232 241 251 253 255 260
358 355 356 354 348 340 333 267 221 212 195 192 184 178 181 182 184 194 194 194 199 210 205 201 199 205 196 197 205 214 221 224 227 227 232 234 232 230 242 251 262 269 218
6 8 9 6 1 1 359 71 177 179 183 180 179 178 176 180 181 186 194 194 197 203 200 187 191 193 200 205 208 215 217 225 233 232 226 224 221 230 250 256 264 264 187
17 19 20 19 21 28 46 81 126 151 171 172 172 175 180 180 181 182 188 194 195 195 195 196 192 195 199 204 208 207 209 213 214 220 219 211 220 238 247 251 175 171 167
23 23 28 28 31 39 58 77 92 118 137 165 177 171 174 181 187 186 187 192 194 190 189 184 184 188 191 190 192 194 199 200 201 204 197 204 219 242 249 247 153 179 176
27 30 32 34 33 39 48 72 87 115 130 159 177 178 175 175 177 182 187 189 190 190 186 184 184 188 198 185 193 197 194 188 188 190 194 201 237 251 165 111 150 170 179
29 35 36 35 36 36 44 60 79 96 116 121 161 168 167 168 176 173 180 185 186 185 181 184 185 186 181 181 188 188 180 179 186 179 191 224 259 321 150 122 146 151 170
Height
5703 5700 5698 5697 5695 5694 5691 5690 5687 5684 5681 5678 5678 5678 5677 5675 5674 5672 5669 5668 5670 5673 5677 5682 5686 5690 5694 5697 5699 5698 5695 5701 5704 5702 5711 5714 5719 5721 5724 5727 5730 5731 5731
5689 5685 5682 5680 5679 5676 5675 5672 5670 5667 5664 5660 5660 5658 5656 5656 5656 5654 5652 5650 5651 5654 5657 5662 5668 5672 5678 5681 5682 5685 5686 5688 5694 5697 5699 5704 5708 5711 5715 5719 5722 5721 5721
5670 5665 5663 5661 5659 5659 5657 5655 5653 5650 5645 5640 5640 5637 5636 5637 5637 5636 5636 5634 5633 5636 5639 5643 5650 5655 5664 5665 5667 5672 5673 5676 5683 5685 5689 5695 5697 5703 5707 5711 5714 5711 5710
5649 5645 5645 5645 5642 5641 5639 5637 5634 5630 5629 5627 5622 5620 5617 5618 5619 5619 5617 5618 5618 5619 5621 5626 5630 5637 5644 5649 5653 5658 5657 5662 5668 5674 5680 5684 5687 5693 5698 5701 5704 5705 5700
5634 5632 5628 5624 5620 5617 5616 5616 5617 5614 5610 5605 5602 5603 5601 5600 5599 5597 5599 5601 5602 5604 5605 5606 5607 5614 5621 5630 5639 5647 5653 5657 5660 5665 5669 5674 5678 5684 5689 5692 5693 5694 5695
5623 5620 5615 5611 5606 5601 5596 5591 5588 5588 5589 5586 5583 5581 5581 5581 5580 5577 5579 5584 5586 5586 5588 5585 5585 5587 5599 5611 5624 5633 5642 5646 5650 5654 5659 5665 5668 5672 5677 5681 5682 5684 5685
5607 5604 5600 5595 5590 5585 5581 5576 5572 5568 5566 5566 5565 5564 5563 5562 5561 5559 5560 5567 5571 5572 5567 5563 5553 5563 5578 5594 5606 5617 5625 5632 5639 5644 5652 5656 5658 5660 5664 5668 5669 5674 5676
5593 5589 5583 5579 5574 5569 5563 5558 5553 5549 5545 5544 5544 5543 5542 5543 5540 5540 5544 5553 5560 5561 5557 5542 5530 5543 5563 5582 5597 5604 5609 5620 5628 5636 5641 5644 5648 5651 5654 5658 5658 5661 5663
5579 5573 5569 5563 5556 5550 5545 5540 5535 5529 5524 5521 5521 5521 5521 5523 5523 5522 5529 5541 5550 5553 5550 5533 5536 5549 5563 5577 5589 5595 5603 5610 5619 5625 5630 5635 5639 5643 5646 5647 5649 5650 5651
5565 5561 5554 5548 5541 5534 5527 5519 5513 5506 5502 5500 5499 5499 5500 5503 5504 5509 5518 5531 5540 5547 5544 5544 5545 5553 5562 5570 5578 5588 5597 5605 5612 5619 5624 5628 5632 5636 5638 5640 5642 5643 5645
5552 5546 5540 5532 5524 5515 5508 5500 5493 5487 5482 5479 5478 5479 5482 5486 5488 5497 5508 5521 5532 5540 5543 5543 5547 5553 5560 5567 5575 5585 5594 5601 5607 5612 5616 5619 5626 5628 5630 5633 5635 5636 5640
5538 5531 5523 5515 5506 5498 5489 5482 5476 5470 5466 5460 5458 5463 5467 5469 5476 5487 5500 5512 5522 5530 5539 5543 5547 5552 5557 5564 5572 5581 5589 5593 5599 5606 5610 5614 5618 5622 5624 5627 5629 5631 5634
5526 5518 5510 5500 5490 5480 5471 5463 5458 5453 5449 5445 5446 5449 5453 5459 5467 5479 5492 5505 5514 5523 5532 5539 5545 5548 5554 5562 5569 5577 5585 5591 5595 5600 5606 5610 5612 5614 5617 5620 5623 5623 5626
5514 5504 5494 5485 5475 5465 5456 5448 5445 5440 5436 5436 5436 5439 5444 5452 5460 5472 5485 5497 5506 5518 5528 5536 5541 5546 5551 5561 5569 5574 5580 5586 5592 5596 5602 5605 5606 5611 5614 5616 5617 5618 5621
5501 5491 5480 5470 5462 5454 5444 5437 5434 5430 5427 5429 5429 5433 5439 5444 5455 5468 5479 5491 5501 5512 5521 5530 5539 5544 5548 5557 5564 5570 5577 5582 5587 5593 5599 5601 5605 5608 5611 5612 5612 5614 5617
5491 5478 5467 5458 5449 5441 5434 5428 5425 5422 5421 5421 5424 5426 5433 5440 5452 5464 5476 5486 5496 5505 5514 5525 5533 5538 5545 5552 5561 5568 5575 5580 5585 5592 5597 5599 5601 5604 5606 5606 5607 5610 5612
5480 5468 5456 5446 5437 5430 5425 5420 5417 5415 5415 5416 5419 5420 5427 5438 5449 5461 5474 5484 5492 5500 5509 5519 5527 5536 5542 5549 5557 5563 5571 5580 5586 5588 5593 5596 5598 5600 5601 5602 5604 5605 5607
5471 5459 5447 5436 5426 5419 5415 5412 5410 5409 5410 5412 5414 5416 5423 5436 5448 5460 5470 5479 5489 5499 5508 5515 5525 5533 5540 5550 5555 5562 5569 5575 5580 5584 5590 5593 5594 5596 5596 5598 5599 5600 5602
5465 5452 5439 5426 5416 5409 5405 5403 5403 5404 5405 5409 5412 5414 5422 5435 5446 5459 5467 5479 5489 5499 5507 5515 5524 5533 5541 5547 5553 5559 5564 5569 5571 5580 5586 5588 5589 5592 5592 5594 5595 5595 5596
5460 5447 5434 5420 5410 5403 5398 5395 5396 5399 5402 5407 5411 5415 5424 5436 5447 5457 5467 5478 5487 5496 5505 5512 5519 5528 5537 5544 5550 5555 5559 5562 5569 5576 5581 5583 5586 5587 5588 5590 5590 5590 5590
5457 5444 5431 5417 5407 5398 5392 5390 5392 5397 5401 5406 5413 5418 5426 5437 5448 5458 5467 5476 5484 5493 5500 5507 5515 5525 5534 5539 5546 5550 5554 5560 5567 5573 5577 5579 5581 5583 5584 5585 5583 5583 5585
5457 5444 5430 5415 5405 5396 5389 5389 5391 5396 5401 5408 5414 5421 5428 5437 5447 5456 5466 5474 5482 5490 5499 5506 5514 5522 5528 5534 5540 5547 5551 5557 5564 5569 5571 5575 5577 5578 5578 5579 5579 5577 5581
5459 5446 5433 5419 5409 5401 5394 5393 5396 5400 5404 5411 5417 5423 5430 5438 5446 5455 5464 5472 5480 5488 5497 5505 5511 5519 5525 5531 5536 5542 5549 5555 5560 5564 5567 5571 5573 5574 5574 5573 5573 5577 5581
5463 5451 5439 5427 5417 5410 5406 5404 5406 5408 5410 5414 5420 5426 5432 5439 5446 5454 5461 5469 5478 5487 5495 5503 5510 5517 5523 5528 5533 5539 5546 5551 5556 5561 5564 5567 5569 5570 5569 5572 5573 5579 5583
5469 5459 5448 5437 5428 5421 5417 5414 5413 5414 5416 5418 5421 5427 5433 5439 5446 5453 5459 5466 5474 5483 5493 5502 5509 5516 5520 5525 5531 5537 5544 5550 5554 5557 5561 5564 5566 5567 5567 5569 5572 5579 5584
5476 5467 5457 5448 5440 5432 5425 5423 5421 5420 5421 5423 5426 5432 5437 5443 5448 5453 5457 5463 5471 5481 5491 5500 5507 5513 5518 5524 5531 5537 5544 5549 5552 5556 5561 5563 5563 5563 5568 5572 5576 5580 5585